Погода в Березове

Россия / Республика Марий Эл     56°09′33″N   46°17′43″E
темп.,
°C
ветер,
м/с
пор.,
м/с
влажн.,
%
обл.,
%
осадки,
мм/ч
давл.,
гПа
погр.,
м
17 мая, пн
пн1700:00+16зюз229479 0.1 101523
03:00+15зюз229286 0.2 101616
06:00+17сз1186100 0.1 101658
09:00+22св1267100 0.1 1017360
12:00+26в21536 0.0 1017918
15:00+27вюв11515 0.0 10161294
18:00+25всв22665 0.0 101664
21:00+19в358448 0.9 101778
18 мая, вт
вт1800:00+17в368916 0.2 1017102
03:00+16в389258 0.2 1017146
06:00+18вюв3108360 0.0 1018287
09:00+23в576231 0.0 1018533
12:00+26вюв57545 0.0 10171069
15:00+27вюв56535 0.0 10171341
18:00+24вюв510665 0.0 1016495
21:00+20вюв513715 0.0 1017325
19 мая, ср
ср1900:00+17вюв413715 0.0 1017291
03:00+16вюв514705 0.0 1017342
06:00+17вюв412735 0.0 1017385
09:00+22вюв695949 0.0 1018681
12:00+24вюв79504 0.0 10171068
15:00+24вюв68490 0.0 10171113
18:00+22вюв510620 0.0 1016656
21:00+17в414750 0.0 1016323
20 мая, чт
чт2000:00+17вюв514730 0.0 1016352
03:00+15вюв413790 0.0 1016306
06:00+17юв513750 0.0 1016427
09:00+21юв610610 0.0 1015619
12:00+23юв710520 0.0 10151646
15:00+24вюв711520 0.0 10131953
18:00+21юв612600 0.0 10121265
21:00+17юв514662 0.0 1012464
21 мая, пт
пт2100:00+13ююв3683100 0.0 1011123
03:00+13ююз239349 0.0 101272
06:00+14ююв2588100 0.3 1012206
09:00+18ююз4569100 0.3 10111053
12:00+21юз675552 0.4 10111795
15:00+21юз5852100 0.4 10121996
18:00+14ююз3128599 0.9 1012528
21:00+14ю413893 0.9 1013502